Location: Home
(42.5358°N, 72.7383°W)
Time: 10:09:04
(UTC-04:00)

A-11 Canister half - Pass Details

Date: 27 June 2022
Orbit: 1514 x 1685 km, 47.2° (Epoch: 15 August)

Event Time Altitude Azimuth Distance (km) Brightness Sun altitude
Rises 00:55:51 0° 247° (WSW) 4,933 11.4 -24.1°
Reaches altitude 10° 00:59:02 10° 248° (WSW) 3,941 10.9 -24.1°
Maximum altitude 01:09:14 85° 337° (NNW) 1,667 9.1 -24.0°
Drops below altitude 10° 01:19:10 10° 68° (ENE) 3,849 11.4 -23.9°
Sets 01:22:15 0° 69° (ENE) 4,813 12.0 -23.8°
